This is the latest recevied weather packets stored in our database for station/object F8BPU-10. If no packets are shown the sender has not sent any weather packets the latest 10 day(s).
| Time | Temp. | Humidity | Pressure | Rain* | Wind** | Luminosity | Snow |
|---|---|---|---|---|---|---|---|
| 1777381457 | 20.56° C | 33% | 1020.1 hPa | - | - | - | - |
| 1777380556 | 20.56° C | 34% | 1020.1 hPa | - | - | - | - |
| 1777379656 | 20.56° C | 34% | 1020.1 hPa | - | - | - | - |
| 1777378756 | 20.56° C | 34% | 1020.1 hPa | - | - | - | - |
| 1777377856 | 20.56° C | 34% | 1020.1 hPa | - | - | - | - |
| 1777376956 | 20.56° C | 34% | 1020.2 hPa | - | - | - | - |
| 1777376056 | 20.56° C | 34% | 1020.3 hPa | - | - | - | - |
| 1777375156 | 20° C | 34% | 1020.5 hPa | - | - | - | - |
| 1777374256 | 20° C | 33% | 1020.6 hPa | - | - | - | - |
| 1777373356 | 20° C | 33% | 1020.6 hPa | - | - | - | - |
| 1777372456 | 20° C | 33% | 1020.8 hPa | - | - | - | - |
| 1777371556 | 20° C | 33% | 1021 hPa | - | - | - | - |
| 1777370656 | 20° C | 32% | 1021 hPa | - | - | - | - |
| 1777369755 | 20° C | 32% | 1021.1 hPa | - | - | - | - |
| 1777368855 | 20° C | 32% | 1021.3 hPa | - | - | - | - |
| 1777367955 | 20° C | 31% | 1021.4 hPa | - | - | - | - |
| 1777367055 | 20.56° C | 31% | 1021.6 hPa | - | - | - | - |
| 1777366155 | 20.56° C | 30% | 1021.4 hPa | - | - | - | - |
| 1777365255 | 21.11° C | 29% | 1021.3 hPa | - | - | - | - |
| 1777364355 | 21.67° C | 28% | 1021 hPa | - | - | - | - |
| 1777363455 | 22.78° C | 28% | 1021 hPa | - | - | - | - |
| 1777362555 | 23.89° C | 26% | 1020.9 hPa | - | - | - | - |
| 1777361655 | 25.56° C | 26% | 1020.8 hPa | - | - | - | - |
| 1777360755 | 25.56° C | 27% | 1020.7 hPa | - | - | - | - |
| 1777359854 | 25.56° C | 27% | 1020.8 hPa | - | - | - | - |
* Rain since midnight (hover to see other rain measurements)
** Current wind speed in m/s (hover to see current wind gust speed)